Regional Weather Roundup
Issued by NWS Columbia, SC

Home | Current Version | Previous Version | Text Only | Print | Product List | Glossary On
Versions: 1 2 3 4 5 6 7 8 9 10 11 12 13 14 15 16 17 18 19 20 21 22 23 24 25 26 27 28 29 30 31 32 33 34 35 36 37 38 39 40 41 42 43 44 45 46 47 48 49 50
000
ASUS42 KCAE 291010
RWRCAE
REGIONAL WEATHER ROUNDUP
NATIONAL WEATHER SERVICE COLUMBIA SC
600 AM EDT MON MAY 29 2017

NOTE: "FAIR" INDICATES FEW OR NO CLOUDS BELOW 12,000 FEET WITH NO
SIGNIFICANT WEATHER AND/OR OBSTRUCTIONS TO VISIBILITY.

NOT ALL STATIONS ARE QUALITY CONTROLLED BY THE NATIONAL
WEATHER SERVICE. USE DATA WITH CAUTION...ESPECIALLY
DEWPOINT OBSERVATIONS.

SCZ001>056-GAZ040-063>065-077-291100-
...UPSTATE SOUTH CAROLINA...

CITY           SKY/WX    TMP DP  RH WIND       PRES   REMARKS
ANDERSON       PTCLDY    66  63  90 NW3       29.96R
SPARTANBURG    CLEAR     63  59  88 W5        29.94R
CLEMSON        PTCLDY    66  61  84 NW5       29.97R
GREENVILLE     CLEAR     67  59  75 NW3       29.96R
GREENWOOD      CLEAR     67  63  87 W6        29.96S
GREER          CLEAR     62  59  90 CALM      29.94R
ROCK HILL      CLEAR     65  64  97 W6        29.93R
CHESTER        SUNNY     63  63 100 CALM      29.94S
LAURENS        SUNNY     64  63  94 SW3       29.95R


...CENTRAL SOUTH CAROLINA...

CITY           SKY/WX    TMP DP  RH WIND       PRES   REMARKS
COLUMBIA APT   CLEAR     69  65  86 W3        29.93R
COLUMBIA OWENS CLEAR     68  67  96 CALM      29.94R
MCENTIRE ANGB  CLEAR     64  64 100 CALM      29.94R FOG
ORANGEBURG     CLEAR     72  68  87 W3        29.94R
SUMTER SHAW    PTCLDY    69  66  90 CALM      29.91R
NEWBERRY       SUNNY     64  63  94 SW3       29.97R
AIKEN          FAIR      66  64  94 SW3       29.99R
BARNWELL       FAIR      72  70  94 CALM      29.95S
MANNING        FAIR      70  70 100 W8G17     29.93R
CAMDEN         FAIR      68  66  94 CALM      29.94R
LANCASTER      SUNNY     64  64 100 CALM      29.94R
WINNSBORO      SUNNY     64  64 100 SW5       29.94R


...EASTERN AND COASTAL SOUTH CAROLINA...

CITY           SKY/WX    TMP DP  RH WIND       PRES   REMARKS
N MYRTLE BCH   CLEAR     72  71  97 W3        29.89R
CONWAY         FAIR      68  68 100 SW3       29.91R FOG
MARION         FAIR      68  66  94 CALM      29.91R
HARTSVILLE     FAIR      64  63  94 CALM      29.92R
FLORENCE       CLEAR     70  68  93 W6        29.92R
DARLINGTON     CLEAR     67  66  97 SW3       29.92R
CHARLESTON APT PTCLDY    73  68  84 W6        29.93R
MOUNT PLEASANT FAIR      75  70  83 W3        29.93R
WALTERBORO     SUNNY     72  68  88 W6        29.95R
BEAUFORT       CLEAR     76  70  82 W10       29.94R


...EASTERN GEORGIA...

CITY           SKY/WX    TMP DP  RH WIND       PRES   REMARKS
AUGUSTA BUSH F PTCLDY    72  67  84 W5        29.95R
AUGUSTA DANIEL PTCLDY    74  63  68 W7        29.96S
THOMSON        PTCLDY    67  65  93 NW3       30.01R
WASHINGTON     FAIR      72  70  94 W6        29.97R
CLAXTON        FAIR     N/A N/A N/A SW3       29.97R
SYLVANIA       MOSUNNY   72  70  95 NW5       29.97R
STATESBORO     PTCLDY    74  72  93 W6        29.97R
SAVANNAH       MOCLDY    72  67  84 W6        29.96R


...SOUTHERN NORTH CAROLINA...

CITY           SKY/WX    TMP DP  RH WIND       PRES   REMARKS
CHARLOTTE      PTCLDY    64  62  93 S3        29.93R
MONROE         CLEAR     64  62  93 SW7       29.92R
WADESBORO      SUNNY     63  61  94 CALM      29.91R
ROCKINGHAM     SUNNY     65  65 100 CALM      29.91R
RUTHERFORDTON  CLEAR     63  61  93 NW7       29.96R
ASHEVILLE      PTCLDY    59  55  87 CALM      30.01S

$$



USA.gov is the U.S. government's official web portal to all federal, state and local government web resources and services.